This demonstration page uses our WeatherBlox Daily Observations layout. Learn more.

Left ArrowRight Arrow

39.92423, -83.80882

Hourly Observations for January 23, 2020

Temp ( °F °C ) Dew Point ( °F °C ) Humidity (%) Winds ( mph kmh ) Pressure ( in mb ) Visibility ( mi km ) Precip ( " mm )
12:56 am 00:56 Clear 30 -1.1 21 -6.1 69 69 SE 8 13 30.27 1025 10 16.0934 0 0
1:56 am 01:56 Clear 30 -1.1 22 -5.6 72 72 SE 6 9 30.25 1025 10 16.0934 0 0
2:56 am 02:56 Clear 29 -1.7 21 -6.1 72 72 SE 7 11 30.25 1024 10 16.0934 0 0
3:56 am 03:56 Clear 30 -1.1 22 -5.6 72 72 SE 7 11 30.24 1024 10 16.0934 0 0
4:56 am 04:56 Clear 29 -1.7 23 -5 78 78 SSE 5 7 30.24 1024 10 16.0934 0 0
5:56 am 05:56 Clear 28 -2.2 22 -5.6 78 78 ESE 3 6 30.24 1024 10 16.0934 0 0
6:56 am 06:56 Clear 29 -1.7 23 -5 78 78 SE 6 9 30.24 1024 10 16.0934 0 0
7:56 am 07:56 Sunny 29 -1.7 22 -5.6 75 75 SE 3 6 30.25 1024 10 16.0934 0 0
8:56 am 08:56 Sunny 31 -0.6 24 -4.4 76 76 SE 7 11 30.25 1024 10 16.0934 0 0
9:56 am 09:56 Sunny 33 0.6 23 -5 66 66 SSE 8 13 30.25 1024 10 16.0934 0 0
10:56 am 10:56 Partly Cloudy 37 2.8 24 -4.4 59 59 SSE 8 13 30.25 1024 10 16.0934 0 0
11:56 am 11:56 Mostly Cloudy 39 3.9 24 -4.4 55 55 SSE 8 13 30.23 1024 10 16.0934 0 0
12:56 pm 12:56 Cloudy 39 3.9 26 -3.3 60 60 SE 9 15 30.2 1023 10 16.0934 0 0
1:56 pm 13:56 Mostly Cloudy 41 5 25 -3.9 53 53 SSE 7 11 30.17 1022 10 16.0934 0 0
2:56 pm 14:56 Cloudy 43 6.1 27 -2.8 53 53 ESE 8 13 30.16 1022 10 16.0934 0 0
3:56 pm 15:56 Cloudy 43 6.1 26 -3.3 51 51 SE 7 11 30.16 1021 10 16.0934 0 0
4:56 pm 16:56 Cloudy with Light Rain 41 5 29 -1.7 62 62 E 8 13 30.16 1021 10 16.0934 0.001 0.001
5:56 pm 17:56 Cloudy 37 2.8 29 -1.7 73 73 E 9 15 30.16 1021 10 16.0934 0.001 0.001
6:56 pm 18:56 Cloudy with Light Rain 37 2.8 29 -1.7 73 73 E 8 13 30.15 1021 10 16.0934 0.001 0.001
7:56 pm 19:56 Cloudy 39 3.9 26 -3.3 60 60 ESE 12 19 30.13 1020 10 16.0934 0.001 0.001
8:56 pm 20:56 Cloudy with Light Rain 38 3.3 26 -3.3 62 62 ESE 12 19 30.12 1020 10 16.0934 0.001 0.001
9:56 pm 21:56 Cloudy 38 3.3 26 -3.3 62 62 ESE 10 17 30.11 1020 10 16.0934 0.001 0.001
10:56 pm 22:56 Cloudy with Light Rain 38 3.3 25 -3.9 60 60 E 13 20 30.09 1019 10 16.0934 0.001 0.001
11:56 pm 23:56 Cloudy with Light Rain 37 2.8 28 -2.2 70 70 E 13 20 30.07 1018 10 16.0934 0.001 0.001

Powered by AerisWeather